This is the latest recevied weather packets stored in our database for station/object OE6ATD-13. If no packets are shown the sender has not sent any weather packets the latest 10 day(s).
| Time | Temp. | Humidity | Pressure | Rain* | Wind** | Luminosity | Snow |
|---|---|---|---|---|---|---|---|
| 1778229323 | 19.44° C | 52% | 1016.5 hPa | 0 mm | - | 605 W/m² | - |
| 1778228719 | 19.44° C | 52% | 1016.5 hPa | 0 mm | - | 696 W/m² | - |
| 1778228129 | 19.44° C | 54% | 1016.6 hPa | 0 mm | - | 677 W/m² | - |
| 1778227525 | 18.89° C | 57% | 1016.6 hPa | 0 mm | - | 643 W/m² | - |
| 1778226921 | 17.78° C | 58% | 1016.5 hPa | 0 mm | - | 610 W/m² | - |
| 1778226316 | 17.22° C | 61% | 1016.5 hPa | 0 mm | - | 595 W/m² | - |
| 1778225727 | 17.78° C | 61% | 1016.6 hPa | 0 mm | - | 566 W/m² | - |
| 1778225128 | 17.78° C | 61% | 1016.6 hPa | 0 mm | - | 529 W/m² | - |
| 1778224524 | 16.67° C | 67% | 1016.5 hPa | 0 mm | - | 478 W/m² | - |
| 1778223920 | 16.67° C | 70% | 1016.6 hPa | 0 mm | - | 404 W/m² | - |
| 1778223316 | 16.11° C | 71% | 1016.4 hPa | 0 mm | - | 440 W/m² | - |
| 1778222727 | 15.56° C | 72% | 1016.4 hPa | 0 mm | - | 429 W/m² | - |
| 1778222123 | 14.44° C | 74% | 1016.5 hPa | 0 mm | - | 388 W/m² | - |
| 1778221518 | 13.33° C | 78% | 1016.4 hPa | 0 mm | - | 354 W/m² | - |
| 1778220929 | 12.78° C | 87% | 1016.3 hPa | 0 mm | - | 323 W/m² | - |
| 1778220325 | 12.22° C | 99% | 1016.2 hPa | 0 mm | - | 285 W/m² | - |
| 1778219721 | 12.78° C | 99% | 1016.4 hPa | 0 mm | - | 267 W/m² | - |
| 1778219116 | 11.67° C | 99% | 1016.2 hPa | 0 mm | - | 232 W/m² | - |
| 1778218527 | 10.56° C | 99% | 1016.3 hPa | 0 mm | - | 178 W/m² | - |
| 1778217923 | 10.56° C | 99% | 1016.3 hPa | 0 mm | - | 158 W/m² | - |
| 1778217319 | 9.44° C | 99% | 1016.3 hPa | 0 mm | - | 152 W/m² | - |
| 1778216730 | 8.89° C | 99% | 1016.2 hPa | 0 mm | - | 154 W/m² | - |
| 1778216126 | 8.33° C | 99% | 1016.2 hPa | 0 mm | - | 61 W/m² | - |
| 1778215521 | 8.33° C | 99% | 1016.2 hPa | 0 mm | - | 40 W/m² | - |
| 1778214917 | 8.33° C | 99% | 1016 hPa | 0 mm | - | 57 W/m² | - |
* Rain latest hour (hover to see other rain measurements)
** Current wind speed in m/s (hover to see current wind gust speed)